Thermal, CA

7:28 AM PST on December 05, 2016 (GMT -0800)
Desert Resorts Regional

Weather History for KTRM - October, 2013

Change the Weather History Date:

Thursday, October 3, 2013

  Actual Average Record
Temperature  
Mean Temperature 79 °F 78 °F  
Max Temperature 90 °F 96 °F 107 °F (1952)
Min Temperature 68 °F 60 °F 50 °F (1950)
Degree Days  
Heating Degree Days 0 0  
Month to date heating degree days 0 0  
Since 1 July heating degree days 0 0  
Cooling Degree Days 14 13  
Month to date cooling degree days 32 39  
Year to date cooling degree days 3928 3437  
Growing Degree Days 30 (Base 50)    
Moisture  
Dew Point 46 °F    
Average Humidity 34    
Maximum Humidity 51    
Minimum Humidity 16    
Precipitation  
Precipitation 0.00 in 0.01 in 0.21 in (1968)
Month to date precipitation 0.00 0.02  
Year to date precipitation 1.83 2.41  
Since 1 July precipitation 1.39  
Snow  
Snow 0.00 in - - ()
Month to date snowfall 0.0  
Year to date snowfall 0.0  
Snow Depth 0.00 in    
Sea Level Pressure  
Sea Level Pressure 29.72 in    
Wind  
Wind Speed 8 mph (NW)    
Max Wind Speed 21 mph    
Max Gust Speed 28 mph    
Visibility 10 miles    
Events      
T = Trace of Precipitation, MM = Missing Value Source: NWS Daily Summary

Daily Weather History Graph

Daily Weather History Graph

Search for Another Location

Airport or City:

Trip Planner

Search our weather history database for the weather conditions in past years. The results will help you decide how hot, cold, wet, or windy it might be!

Date:

Astronomy

Oct. 03, 2013 Rise Set
Actual Time 6:40 AM PDT 6:25 PM PDT
Civil Twilight 6:15 AM PDT 6:50 PM PDT
Nautical Twilight 5:46 AM PDT 7:19 PM PDT
Astronomical Twilight 5:18 AM PDT 7:48 PM PDT
Moon 5:20 AM PDT (10/3) 5:35 PM PDT (10/3)
Length of Visible Light 12h 34m
Length of Day
11h 45m
Waning Crescent, 2% of the Moon is Illuminated
Oct 3
Waning Crescent
Oct 4
New
Oct 11
First Quarter
Oct 18
Full
Oct 26
Last Quarter

Hourly Weather History & Observations

Time (PDT) Temp. Dew Point Humidity Pressure Visibility Wind Dir Wind Speed Gust Speed Precip Events Conditions
12:52 AM 75.9 °F 50.0 °F 40% 29.73 in 10.0 mi NNW 17.3 mph - N/A   Clear
1:52 AM 75.0 °F 46.0 °F 36% 29.74 in 10.0 mi NW 9.2 mph - N/A   Clear
2:52 AM 73.0 °F 46.0 °F 38% 29.73 in 10.0 mi SW 6.9 mph - N/A   Clear
3:19 AM 78.8 °F 42.8 °F 28% 29.72 in 10.0 mi North 11.5 mph 27.6 mph N/A   Clear
3:52 AM 72.0 °F 48.0 °F 43% 29.73 in 10.0 mi West 8.1 mph - N/A   Clear
4:52 AM 71.1 °F 46.9 °F 42% 29.73 in 10.0 mi NW 8.1 mph - N/A   Clear
5:52 AM 70.0 °F 50.0 °F 49% 29.74 in 10.0 mi NW 15.0 mph 20.7 mph N/A   Clear
6:52 AM 70.0 °F 50.0 °F 49% 29.75 in 10.0 mi NNW 6.9 mph - N/A   Clear
7:52 AM 71.1 °F 51.1 °F 49% 29.76 in 10.0 mi NNW 10.4 mph - N/A   Clear
8:52 AM 75.9 °F 50.0 °F 40% 29.77 in 10.0 mi WNW 6.9 mph - N/A   Clear
9:52 AM 78.1 °F 48.9 °F 36% 29.77 in 10.0 mi North 4.6 mph - N/A   Clear
10:52 AM 81.0 °F 46.0 °F 29% 29.75 in 10.0 mi West 4.6 mph - N/A   Clear
11:52 AM 84.0 °F 43.0 °F 24% 29.74 in 10.0 mi Calm Calm - N/A   Clear
12:52 PM 86.0 °F 41.0 °F 20% 29.71 in 10.0 mi NW 4.6 mph - N/A   Clear
1:52 PM 88.0 °F 39.9 °F 18% 29.68 in 10.0 mi West 5.8 mph - N/A   Clear
2:52 PM 89.1 °F 37.9 °F 16% 29.67 in 10.0 mi NW 9.2 mph - N/A   Clear
3:52 PM 90.0 °F 37.0 °F 15% 29.65 in 10.0 mi WNW 6.9 mph - N/A   Clear
4:52 PM 89.1 °F 39.9 °F 18% 29.65 in 10.0 mi NW 9.2 mph - N/A   Clear
5:52 PM 87.1 °F 43.0 °F 21% 29.64 in 10.0 mi NNW 6.9 mph - N/A   Clear
6:52 PM 82.9 °F 48.0 °F 29% 29.66 in 10.0 mi NNW 15.0 mph - N/A   Clear
7:52 PM 80.1 °F 48.0 °F 32% 29.69 in 10.0 mi NW 12.7 mph - N/A   Clear
9:52 PM 75.9 °F 53.1 °F 45% 29.73 in 10.0 mi North 10.4 mph - N/A   Clear
10:52 PM 73.9 °F 54.0 °F 50% 29.78 in 10.0 mi NW 12.7 mph - N/A   Clear
11:52 PM 73.9 °F 51.1 °F 45% 29.78 in 10.0 mi WNW 11.5 mph - N/A   Clear